User: anonymous   Login
Location: Lawrence Hall of Science
(37.8785°N, 122.2415°W)
Time: 07:13:16
(UTC-08:00)
Language:

Cosmos 2098 Rocket - Orbit

View from above orbital plane
View from above orbital plane
View from above satellite
View from above satellite

Ground track
Ground track

The orbit data is extracted from the following two-line orbital elements,

1 20775U 90078B   15061.82748492  .00018878  00000-0  99485-3 0  9992
2 20775 082.9345 011.1406 0623720 029.5439 356.7865 14.22320863229306
Epoch (UTC): 02 March 2015 19:51:34
Eccentricity: 0.0623720
inclination: 82.9345°
perigee height: 369 km
apogee height: 1266 km
right ascension of ascending node: 11.1406°
argument of perigee: 29.5439°
revolutions per day: 14.22320863
mean anomaly at epoch: 356.7865°
orbit number at epoch: 22930

The dashed part of the orbit path shows where the satellite is in the earth's shadow,  

DLR